• In Czech Republic
  • List of Countries
  • For 7 days
  • Water Temperature
  • Satellite Maps
  • Weather Map
  • Weather Widgets
  • user-avatar
    Login

    Hourly Weather Eisenstadt

    Today, 24 April, Tuesday

    Time Temperature Precipitation Wind Pressure Humidity
    00:00 +15°C° 0.4 mm 2 mps 722 mmHg 85%
    01:00 +14°C° 0 mm 3 mps 722 mmHg 85%
    02:00 +14°C° 0.1 mm 3 mps 722 mmHg 85%
    03:00 +14°C° 0.1 mm 3 mps 722 mmHg 84%
    04:00 +14°C° 0.1 mm 3 mps 722 mmHg 84%
    05:00 +14°C° 0 mm 3 mps 723 mmHg 83%
    06:00 +14°C° 0 mm 3 mps 723 mmHg 82%
    07:00 +16°C° 0 mm 2 mps 723 mmHg 82%
    08:00 +17°C° 0.1 mm 3 mps 724 mmHg 75%
    09:00 +19°C° 0.1 mm 3 mps 724 mmHg 68%
    10:00 +20°C° 0.1 mm 3 mps 724 mmHg 60%
    11:00 +21°C° 0.4 mm 3 mps 724 mmHg 58%
    12:00 +22°C° 0.4 mm 3 mps 724 mmHg 55%
    13:00 +23°C° 0.4 mm 2 mps 723 mmHg 53%
    14:00 +23°C° 0.5 mm 2 mps 723 mmHg 55%
    15:00 +23°C° 0.5 mm 2 mps 723 mmHg 57%
    16:00 +21°C° 0.5 mm 2 mps 722 mmHg 59%
    17:00 +20°C° 0.2 mm 2 mps 722 mmHg 65%
    18:00 +19°C° 0.2 mm 1 mps 722 mmHg 70%
    19:00 +18°C° 0.2 mm 1 mps 722 mmHg 75%
    20:00 +16°C° 0 mm 1 mps 722 mmHg 77%
    21:00 +15°C° 0 mm 1 mps 722 mmHg 79%
    22:00 +15°C° 0 mm 1 mps 722 mmHg 80%
    23:00 +14°C° 0 mm 1 mps 722 mmHg 82%

    Tomorrow, 25 April, Wednesday

    Time Temperature Precipitation Wind Pressure Humidity
    00:00 +14°C° 0 mm 1 mps 722 mmHg 83%
    01:00 +14°C° 0 mm 1 mps 722 mmHg 84%
    02:00 +13°C° 0 mm 1 mps 722 mmHg 86%
    03:00 +13°C° 0 mm 1 mps 721 mmHg 87%
    04:00 +13°C° 0 mm 1 mps 721 mmHg 88%
    05:00 +14°C° 0 mm 1 mps 721 mmHg 85%
    06:00 +15°C° 0 mm 1 mps 721 mmHg 83%
    07:00 +16°C° 0 mm 1 mps 722 mmHg 80%
    08:00 +19°C° 0 mm 1 mps 722 mmHg 73%
    09:00 +20°C° 0 mm 2 mps 722 mmHg 65%
    10:00 +23°C° 0 mm 2 mps 722 mmHg 58%
    11:00 +24°C° 0 mm 2 mps 721 mmHg 56%
    12:00 +24°C° 0 mm 2 mps 721 mmHg 53%
    13:00 +25°C° 0 mm 2 mps 721 mmHg 51%
    14:00 +25°C° 0.1 mm 2 mps 720 mmHg 51%
    15:00 +25°C° 0.1 mm 1 mps 720 mmHg 52%
    16:00 +25°C° 0.1 mm 1 mps 720 mmHg 52%
    17:00 +23°C° 0.2 mm 1 mps 719 mmHg 58%
    18:00 +21°C° 0.2 mm 1 mps 719 mmHg 65%
    19:00 +20°C° 0.2 mm 1 mps 719 mmHg 71%
    20:00 +18°C° 0.5 mm 2 mps 720 mmHg 74%
    21:00 +17°C° 0.5 mm 2 mps 720 mmHg 77%
    22:00 +16°C° 0.5 mm 2 mps 720 mmHg 80%
    23:00 +16°C° 0.1 mm 2 mps 720 mmHg 80%

    Day after tomorrow, 26 April, Thursday

    Time Temperature Precipitation Wind Pressure Humidity
    00:00 +16°C° 0.1 mm 2 mps 721 mmHg 80%
    01:00 +15°C° 0.1 mm 2 mps 721 mmHg 81%
    02:00 +15°C° 0.1 mm 2 mps 721 mmHg 81%
    03:00 +15°C° 0.1 mm 2 mps 721 mmHg 82%
    04:00 +15°C° 0.1 mm 2 mps 721 mmHg 82%
    05:00 +13°C° 0.9 mm 3 mps 721 mmHg 84%
    06:00 +13°C° 0.9 mm 3 mps 722 mmHg 85%
    07:00 +12°C° 0.9 mm 3 mps 722 mmHg 87%
    08:00 +12°C° 1 mm 3 mps 722 mmHg 87%
    09:00 +11°C° 1 mm 3 mps 723 mmHg 88%
    10:00 +11°C° 1 mm 3 mps 723 mmHg 88%
    11:00 +11°C° 0.7 mm 3 mps 723 mmHg 88%
    12:00 +10°C° 0.7 mm 3 mps 723 mmHg 87%
    13:00 +10°C° 0.7 mm 3 mps 723 mmHg 87%
    14:00 +9°C° 0.5 mm 3 mps 723 mmHg 87%
    15:00 +9°C° 0.5 mm 3 mps 723 mmHg 87%
    16:00 +9°C° 0.5 mm 2 mps 723 mmHg 87%
    17:00 +9°C° 0.5 mm 2 mps 724 mmHg 88%
    18:00 +9°C° 0.5 mm 2 mps 724 mmHg 88%
    19:00 +10°C° 0.5 mm 1 mps 724 mmHg 89%
    20:00 +9°C° 0.1 mm 1 mps 725 mmHg 89%
    21:00 +8°C° 0.1 mm 2 mps 725 mmHg 89%
    22:00 +8°C° 0.1 mm 2 mps 725 mmHg 88%
    23:00 +8°C° 0 mm 2 mps 725 mmHg 88%

    27 April, Friday

    Time Temperature Precipitation Wind Pressure Humidity
    00:00 +8°C° 0 mm 2 mps 725 mmHg 88%
    01:00 +9°C° 0 mm 1 mps 725 mmHg 88%
    02:00 +9°C° 0 mm 1 mps 725 mmHg 88%
    03:00 +9°C° 0 mm 1 mps 725 mmHg 87%
    04:00 +8°C° 0 mm 1 mps 724 mmHg 86%
    05:00 +9°C° 0 mm 1 mps 724 mmHg 83%
    06:00 +10°C° 0 mm 1 mps 725 mmHg 80%
    07:00 +11°C° 0 mm 1 mps 725 mmHg 77%
    08:00 +13°C° 0 mm 1 mps 724 mmHg 70%
    09:00 +14°C° 0 mm 2 mps 724 mmHg 62%
    10:00 +16°C° 0 mm 3 mps 724 mmHg 55%
    11:00 +17°C° 0 mm 3 mps 724 mmHg 53%
    12:00 +18°C° 0 mm 4 mps 723 mmHg 52%
    13:00 +19°C° 0 mm 4 mps 723 mmHg 50%
    14:00 +19°C° 0 mm 4 mps 722 mmHg 52%
    15:00 +19°C° 0 mm 5 mps 722 mmHg 54%
    16:00 +19°C° 0 mm 5 mps 721 mmHg 55%
    17:00 +17°C° 0 mm 4 mps 721 mmHg 63%
    18:00 +16°C° 0 mm 3 mps 721 mmHg 70%
    19:00 +13°C° 0 mm 3 mps 721 mmHg 78%
    20:00 +13°C° 0 mm 3 mps 721 mmHg 80%
    21:00 +12°C° 0 mm 3 mps 721 mmHg 82%
    22:00 +12°C° 0 mm 2 mps 721 mmHg 85%
    23:00 +12°C° 0 mm 2 mps 721 mmHg 86%

    28 April, Saturday

    Time Temperature Precipitation Wind Pressure Humidity
    00:00 +10°C° 0 mm 2 mps 721 mmHg 87%
    01:00 +10°C° 0 mm 2 mps 721 mmHg 88%
    02:00 +10°C° 0 mm 2 mps 721 mmHg 89%
    03:00 +10°C° 0 mm 2 mps 720 mmHg 89%
    04:00 +9°C° 0 mm 2 mps 720 mmHg 90%
    05:00 +12°C° 0 mm 2 mps 721 mmHg 86%
    06:00 +13°C° 0 mm 2 mps 721 mmHg 81%
    07:00 +14°C° 0 mm 2 mps 721 mmHg 77%
    08:00 +16°C° 0 mm 2 mps 721 mmHg 71%
    09:00 +18°C° 0 mm 2 mps 721 mmHg 65%
    10:00 +20°C° 0 mm 2 mps 721 mmHg 59%
    11:00 +21°C° 0 mm 3 mps 721 mmHg 56%
    12:00 +22°C° 0 mm 3 mps 721 mmHg 54%
    13:00 +24°C° 0 mm 3 mps 720 mmHg 51%
    14:00 +24°C° 0 mm 3 mps 720 mmHg 51%
    15:00 +24°C° 0 mm 3 mps 720 mmHg 51%
    16:00 +25°C° 0 mm 3 mps 720 mmHg 52%
    17:00 +22°C° 0 mm 3 mps 719 mmHg 60%
    18:00 +20°C° 0 mm 2 mps 719 mmHg 67%
    19:00 +18°C° 0 mm 2 mps 719 mmHg 75%
    20:00 +17°C° 0 mm 2 mps 719 mmHg 77%
    21:00 +16°C° 0 mm 2 mps 719 mmHg 79%
    22:00 +15°C° 0 mm 2 mps 719 mmHg 81%
    23:00 +15°C° 0 mm 2 mps 719 mmHg 82%

    29 April, Sunday

    Time Temperature Precipitation Wind Pressure Humidity
    00:00 +15°C° 0 mm 2 mps 719 mmHg 83%
    01:00 +14°C° 0 mm 2 mps 719 mmHg 84%
    02:00 +14°C° 0 mm 2 mps 719 mmHg 85%
    03:00 +14°C° 0 mm 2 mps 719 mmHg 85%
    04:00 +13°C° 0 mm 2 mps 719 mmHg 86%
    05:00 +14°C° 0 mm 2 mps 719 mmHg 82%
    06:00 +16°C° 0 mm 2 mps 719 mmHg 77%
    07:00 +17°C° 0 mm 3 mps 719 mmHg 73%
    08:00 +19°C° 0 mm 3 mps 719 mmHg 65%
    09:00 +20°C° 0 mm 4 mps 719 mmHg 58%
    10:00 +22°C° 0 mm 4 mps 719 mmHg 51%
    11:00 +23°C° 0 mm 5 mps 719 mmHg 48%
    12:00 +25°C° 0 mm 5 mps 719 mmHg 46%
    13:00 +26°C° 0 mm 5 mps 719 mmHg 43%
    14:00 +26°C° 0 mm 5 mps 718 mmHg 45%
    15:00 +26°C° 0 mm 5 mps 718 mmHg 47%
    16:00 +26°C° 0 mm 5 mps 717 mmHg 48%
    17:00 +23°C° 0 mm 4 mps 717 mmHg 55%
    18:00 +21°C° 0 mm 4 mps 717 mmHg 63%
    19:00 +19°C° 0 mm 3 mps 717 mmHg 70%
    20:00 +18°C° 0 mm 3 mps 716 mmHg 71%
    21:00 +18°C° 0 mm 3 mps 716 mmHg 73%
    22:00 +17°C° 0 mm 3 mps 716 mmHg 74%
    23:00 +16°C° 0 mm 3 mps 716 mmHg 76%
    Show more